San Luis Potosi, Mexico

2:01 AM CST on February 18, 2018 (GMT -0600)
Ponciano Arriaga International

Weather History for MMSP - November, 2012

Change the Weather History Date:

Monday, November 12, 2012

  Actual Average Record
Temperature  
Mean Temperature 59 °F -  
Max Temperature 66 °F 71 °F 82 °F (2000)
Min Temperature 52 °F 45 °F 37 °F (2011)
Degree Days  
Heating Degree Days 6    
Growing Degree Days 9 (Base 50)    
Moisture  
Dew Point 50 °F    
Average Humidity 72    
Maximum Humidity 99    
Minimum Humidity 56    
Precipitation  
Precipitation 0.00 in - - ()
Sea Level Pressure  
Sea Level Pressure 30.20 in    
Wind  
Wind Speed 6 mph ()    
Max Wind Speed 14 mph    
Max Gust Speed -    
Visibility 9.1 miles    
Events      
Averages and records for this station are not official NWS values.
T = Trace of Precipitation, MM = Missing Value Source: Averaged Metar Reports

Daily Weather History Graph

Daily Weather History Graph

Search for Another Location

Airport or City:

Trip Planner

Search our weather history database for the weather conditions in past years. The results will help you decide how hot, cold, wet, or windy it might be!

Date:

Astronomy

Nov. 12, 2012 Rise Set
Actual Time 6:54 AM CST 6:01 PM CST
Civil Twilight 6:30 AM CST 6:24 PM CST
Nautical Twilight 6:03 AM CST 6:51 PM CST
Astronomical Twilight 5:37 AM CST 7:18 PM CST
Moon 5:28 AM CST (11/12) 5:04 PM CST (11/12)
Length of Visible Light 11h 53m
Length of Day
11h 06m
Waning Crescent, 2% of the Moon is Illuminated
Nov 12
Waning Crescent
Nov 13
New
Nov 20
First Quarter
Nov 28
Full
Dec 6
Last Quarter

Hourly Weather History & Observations

Time (CST) Temp. Dew Point Humidity Pressure Visibility Wind Dir Wind Speed Gust Speed Precip Events Conditions
12:50 AM 57.2 °F 44.6 °F 63% 30.24 in 8.0 mi Calm Calm - N/A   Clear
1:42 AM 55.4 °F 46.4 °F 72% 30.23 in 8.0 mi Calm Calm - N/A   Clear
2:52 AM 55.4 °F 46.4 °F 72% 29.84 in 8.0 mi ESE 5.8 mph - N/A   Clear
4:07 AM 55.4 °F 46.4 °F 72% 30.26 in 8.0 mi SSE 9.2 mph - N/A   Clear
4:44 AM 55.4 °F 46.4 °F 72% 30.27 in 8.0 mi Calm Calm - N/A   Clear
5:45 AM 58 °F 53 °F 78% 30.03 in 3 mi ESE 6.7 mph - -   Haze
5:45 AM 55.4 °F 46.4 °F 72% 29.91 in 8.0 mi ESE 8.1 mph - N/A   Clear
6:42 AM 53.6 °F 48.2 °F 82% 30.31 in 8.0 mi East 8.1 mph - N/A   Scattered Clouds
7:42 AM 57.2 °F 50.0 °F 77% 30.36 in 10.0 mi East 6.9 mph - N/A   Scattered Clouds
8:40 AM 59.0 °F 50.0 °F 72% 30.02 in 10.0 mi East 6.9 mph - N/A   Mostly Cloudy
8:50 AM 61 °F 52 °F 65% 30.12 in 6 mi South 4.5 mph - -   Haze
9:43 AM 60.8 °F 50.0 °F 68% 30.40 in 10.0 mi ESE 11.5 mph - N/A   Overcast
10:49 AM 60.8 °F 50.0 °F 68% 30.39 in 10.0 mi East 11.5 mph - N/A   Overcast
11:43 AM 62.6 °F 50.0 °F 63% 30.01 in 10.0 mi East 13.8 mph - N/A   Mostly Cloudy
11:45 AM 63 °F 54 °F 63% 30.16 in 6 mi East 6.7 mph - -   Haze
12:42 PM 62.6 °F 50.0 °F 63% 30.37 in 12.0 mi East 13.8 mph - N/A   Mostly Cloudy
1:41 PM 66.2 °F 50.0 °F 56% 30.33 in 12.0 mi East 13.8 mph - N/A   Scattered Clouds
2:44 PM 64.4 °F 50.0 °F 59% 30.03 in 12.0 mi East 9.2 mph - N/A   Overcast
2:55 PM 62 °F 56 °F 75% 30.06 in 9 mi SSE 4.5 mph - -   Haze
3:44 PM 64.4 °F 50.0 °F 59% 30.32 in 12.0 mi East 10.4 mph - N/A   Overcast
4:51 PM 62.6 °F 51.8 °F 68% 30.31 in 12.0 mi East 11.5 mph - N/A   Mostly Cloudy
5:45 PM 62.6 °F 51.8 °F 68% 30.02 in 12.0 mi East 11.5 mph - N/A   Mostly Cloudy
5:50 PM 61 °F 57 °F 84% 30.06 in 7 mi East 6.7 mph - -   Haze
6:41 PM 60.8 °F 51.8 °F 72% 30.33 in 12.0 mi ESE 11.5 mph - N/A   Mostly Cloudy
7:46 PM 59.0 °F 51.8 °F 77% 30.35 in 10.0 mi East 11.5 mph - N/A   Mostly Cloudy
8:49 PM 57.2 °F 51.8 °F 82% 30.13 in 10.0 mi ESE 11.5 mph - N/A   Mostly Cloudy
8:50 PM 56 °F 56 °F 99% 30.15 in 5 mi ESE 6.7 mph - -  
9:41 PM 55.4 °F 48.2 °F 77% 30.42 in 10.0 mi SSE 11.5 mph - N/A   Mostly Cloudy
10:45 PM 55.4 °F 46.4 °F 72% 30.42 in 10.0 mi SE 11.5 mph - N/A   Mostly Cloudy
11:44 PM 53.6 °F 46.4 °F 77% 30.13 in 10.0 mi ESE 11.5 mph - N/A   Overcast
11:50 PM 53 °F 53 °F 99% 30.21 in 5 mi South 6.7 mph - -